Time,TemperatureF,DewpointF,PressureIn,WindDirection,WindDirectionDegrees,WindSpeedMPH,WindSpeedGustMPH,Humidity,HourlyPrecipIn,Conditions,Clouds,dailyrainin,SoftwareType,DateUTC
2013-11-03 00:08:00,26.6,23.0,30.08,North,5,0.0,-999.0,87,-99.99,,,0.00,weatherlink.com 1.10,2013-11-03 05:08:00,
2013-11-03 00:23:00,26.4,23.0,30.08,North,5,0.0,-999.0,87,-99.99,,,0.00,weatherlink.com 1.10,2013-11-03 05:23:00,
2013-11-03 00:38:00,26.1,23.0,30.08,North,5,0.0,-999.0,87,-99.99,,,0.00,weatherlink.com 1.10,2013-11-03 05:38:00,
2013-11-03 00:53:00,26.0,23.0,30.08,North,5,0.0,-999.0,88,-99.99,,,0.00,weatherlink.com 1.10,2013-11-03 05:53:00,
2013-11-03 01:08:00,25.8,23.0,30.08,North,5,0.0,-999.0,88,-99.99,,,0.00,weatherlink.com 1.10,2013-11-03 06:08:00,
2013-11-03 01:23:00,25.6,23.0,30.09,North,5,0.0,-999.0,88,-99.99,,,0.00,weatherlink.com 1.10,2013-11-03 06:23:00,
2013-11-03 01:38:00,25.4,22.0,30.09,North,5,0.0,-999.0,88,-99.99,,,0.00,weatherlink.com 1.10,2013-11-03 06:38:00,
2013-11-03 01:53:00,25.7,23.0,30.10,North,5,0.0,-999.0,90,-99.99,,,0.00,weatherlink.com 1.10,2013-11-03 06:53:00,
2013-11-03 01:08:00,25.8,24.0,30.10,North,5,0.0,-999.0,91,-99.99,,,0.00,weatherlink.com 1.10,2013-11-03 07:08:00,
2013-11-03 01:23:00,26.0,24.0,30.11,North,5,0.0,-999.0,92,-99.99,,,0.00,weatherlink.com 1.10,2013-11-03 07:23:00,
2013-11-03 01:38:00,26.4,24.0,30.11,North,5,0.0,-999.0,92,-99.99,,,0.00,weatherlink.com 1.10,2013-11-03 07:38:00,
2013-11-03 01:53:00,26.6,25.0,30.11,North,5,0.0,-999.0,93,-99.99,,,0.00,weatherlink.com 1.10,2013-11-03 07:53:00,
2013-11-03 02:09:00,26.6,25.0,30.11,North,5,0.0,-999.0,93,-99.99,,,0.00,weatherlink.com 1.10,2013-11-03 08:09:00,
2013-11-03 02:24:00,26.6,25.0,30.11,North,5,0.0,-999.0,93,-99.99,,,0.00,weatherlink.com 1.10,2013-11-03 08:24:00,
2013-11-03 02:39:00,26.6,25.0,30.11,North,5,0.0,-999.0,93,-99.99,,,0.00,weatherlink.com 1.10,2013-11-03 08:39:00,
2013-11-03 02:54:00,26.7,25.0,30.11,North,5,0.0,-999.0,93,-99.99,,,0.00,weatherlink.com 1.10,2013-11-03 08:54:00,
2013-11-03 03:09:00,26.7,25.0,30.11,North,5,0.0,-999.0,93,-99.99,,,0.00,weatherlink.com 1.10,2013-11-03 09:09:00,
2013-11-03 03:24:00,26.7,25.0,30.11,North,5,0.0,-999.0,93,-99.99,,,0.00,weatherlink.com 1.10,2013-11-03 09:24:00,
2013-11-03 03:39:00,26.7,25.0,30.11,North,5,0.0,-999.0,94,-99.99,,,0.00,weatherlink.com 1.10,2013-11-03 09:39:00,
2013-11-03 03:54:00,26.9,25.0,30.11,North,5,0.0,-999.0,94,-99.99,,,0.00,weatherlink.com 1.10,2013-11-03 09:54:00,
2013-11-03 04:09:00,26.7,25.0,30.12,North,5,0.0,-999.0,94,-99.99,,,0.00,weatherlink.com 1.10,2013-11-03 10:09:00,
2013-11-03 04:24:00,26.4,25.0,30.12,North,5,0.0,-999.0,94,-99.99,,,0.00,weatherlink.com 1.10,2013-11-03 10:24:00,
2013-11-03 04:39:00,26.3,25.0,30.13,North,5,0.0,-999.0,94,-99.99,,,0.00,weatherlink.com 1.10,2013-11-03 10:39:00,
2013-11-03 04:54:00,26.1,25.0,30.13,North,5,0.0,-999.0,94,-99.99,,,0.00,weatherlink.com 1.10,2013-11-03 10:54:00,
2013-11-03 05:09:00,26.4,25.0,30.13,North,5,0.0,-999.0,94,-99.99,,,0.00,weatherlink.com 1.10,2013-11-03 11:09:00,
2013-11-03 05:24:00,26.7,26.0,30.13,North,5,0.0,-999.0,95,-99.99,,,0.00,weatherlink.com 1.10,2013-11-03 11:24:00,
2013-11-03 05:39:00,27.0,26.0,30.12,North,5,0.0,-999.0,95,-99.99,,,0.00,weatherlink.com 1.10,2013-11-03 11:39:00,
2013-11-03 05:54:00,27.0,26.0,30.12,North,5,0.0,-999.0,95,-99.99,,,0.00,weatherlink.com 1.10,2013-11-03 11:54:00,
2013-11-03 06:09:00,27.0,26.0,30.13,North,5,0.0,-999.0,95,-99.99,,,0.00,weatherlink.com 1.10,2013-11-03 12:09:00,
2013-11-03 06:24:00,26.9,26.0,30.14,North,5,0.0,-999.0,95,-99.99,,,0.00,weatherlink.com 1.10,2013-11-03 12:24:00,
2013-11-03 06:39:00,26.9,26.0,30.13,North,5,0.0,-999.0,95,-99.99,,,0.00,weatherlink.com 1.10,2013-11-03 12:39:00,
2013-11-03 06:54:00,27.2,26.0,30.14,North,5,0.0,-999.0,95,-99.99,,,0.00,weatherlink.com 1.10,2013-11-03 12:54:00,
2013-11-03 07:09:00,27.8,27.0,30.14,North,5,0.0,-999.0,96,-99.99,,,0.00,weatherlink.com 1.10,2013-11-03 13:09:00,
2013-11-03 07:24:00,28.2,27.0,30.14,North,5,0.0,-999.0,96,-99.99,,,0.00,weatherlink.com 1.10,2013-11-03 13:24:00,
2013-11-03 07:39:00,28.8,28.0,30.14,North,5,0.0,-999.0,96,-99.99,,,0.00,weatherlink.com 1.10,2013-11-03 13:39:00,
2013-11-03 07:54:00,29.4,28.0,30.15,North,5,0.0,-999.0,96,-99.99,,,0.00,weatherlink.com 1.10,2013-11-03 13:54:00,
2013-11-03 08:10:00,30.1,29.0,30.15,North,5,0.0,-999.0,97,-99.99,,,0.00,weatherlink.com 1.10,2013-11-03 14:10:00,
2013-11-03 08:25:00,31.0,30.0,30.16,North,5,0.0,-999.0,97,-99.99,,,0.00,weatherlink.com 1.10,2013-11-03 14:25:00,
2013-11-03 08:40:00,32.4,32.0,30.16,NE,41,1.0,-999.0,98,-99.99,,,0.00,weatherlink.com 1.10,2013-11-03 14:40:00,
2013-11-03 08:55:00,33.7,33.0,30.15,ENE,71,0.0,-999.0,98,-99.99,,,0.00,weatherlink.com 1.10,2013-11-03 14:55:00,
2013-11-03 09:10:00,34.6,34.0,30.15,South,191,0.0,-999.0,98,-99.99,,,0.00,weatherlink.com 1.10,2013-11-03 15:10:00,
2013-11-03 09:25:00,35.5,35.0,30.14,ESE,123,0.0,-999.0,97,-99.99,,,0.00,weatherlink.com 1.10,2013-11-03 15:25:00,
2013-11-03 09:40:00,36.8,36.0,30.14,SSE,154,0.0,-999.0,95,-99.99,,,0.00,weatherlink.com 1.10,2013-11-03 15:40:00,
2013-11-03 09:55:00,38.8,35.0,30.13,SE,125,1.0,-999.0,85,-99.99,,,0.00,weatherlink.com 1.10,2013-11-03 15:55:00,
2013-11-03 10:10:00,41.1,33.0,30.13,SSE,150,4.0,-999.0,73,-99.99,,,0.00,weatherlink.com 1.10,2013-11-03 16:10:00,
2013-11-03 10:25:00,43.2,32.0,30.13,ESE,109,0.0,-999.0,65,-99.99,,,0.00,weatherlink.com 1.10,2013-11-03 16:25:00,
2013-11-03 10:40:00,45.2,31.0,30.12,ESE,109,0.0,-999.0,59,-99.99,,,0.00,weatherlink.com 1.10,2013-11-03 16:40:00,
2013-11-03 10:55:00,46.4,31.0,30.12,ESE,113,1.0,-999.0,56,-99.99,,,0.00,weatherlink.com 1.10,2013-11-03 16:55:00,
2013-11-03 11:11:00,47.0,32.0,30.11,ESE,111,1.0,-999.0,57,-99.99,,,0.00,weatherlink.com 1.10,2013-11-03 17:11:00,
2013-11-03 11:26:00,48.0,32.0,30.11,South,175,3.0,-999.0,54,-99.99,,,0.00,weatherlink.com 1.10,2013-11-03 17:26:00,
2013-11-03 11:41:00,48.6,32.0,30.10,ESE,121,1.0,-999.0,54,-99.99,,,0.00,weatherlink.com 1.10,2013-11-03 17:41:00,
2013-11-03 11:56:00,49.6,32.0,30.09,NE,39,1.0,-999.0,52,-99.99,,,0.00,weatherlink.com 1.10,2013-11-03 17:56:00,
2013-11-03 12:11:00,50.1,33.0,30.07,SE,136,4.0,-999.0,53,-99.99,,,0.00,weatherlink.com 1.10,2013-11-03 18:11:00,
2013-11-03 12:26:00,50.2,33.0,30.06,ESE,111,5.0,-999.0,52,-99.99,,,0.00,weatherlink.com 1.10,2013-11-03 18:26:00,
2013-11-03 12:41:00,50.7,32.0,30.06,ESE,111,4.0,-999.0,50,-99.99,,,0.00,weatherlink.com 1.10,2013-11-03 18:41:00,
2013-11-03 12:56:00,51.4,33.0,30.05,SE,132,1.0,-999.0,50,-99.99,,,0.00,weatherlink.com 1.10,2013-11-03 18:56:00,
2013-11-03 13:11:00,51.6,33.0,30.04,SE,126,4.0,-999.0,50,-99.99,,,0.00,weatherlink.com 1.10,2013-11-03 19:11:00,
2013-11-03 13:26:00,51.9,34.0,30.03,South,190,4.0,-999.0,50,-99.99,,,0.00,weatherlink.com 1.10,2013-11-03 19:26:00,
2013-11-03 13:41:00,51.0,34.0,30.02,ESE,107,3.0,-999.0,52,-99.99,,,0.00,weatherlink.com 1.10,2013-11-03 19:41:00,
2013-11-03 13:56:00,50.7,34.0,30.02,SE,134,4.0,-999.0,54,-99.99,,,0.00,weatherlink.com 1.10,2013-11-03 19:56:00,
2013-11-03 14:11:00,51.1,34.0,30.01,SE,131,2.0,-999.0,52,-99.99,,,0.00,weatherlink.com 1.10,2013-11-03 20:11:00,
2013-11-03 14:26:00,51.1,34.0,30.01,ESE,115,3.0,-999.0,52,-99.99,,,0.00,weatherlink.com 1.10,2013-11-03 20:26:00,
2013-11-03 14:41:00,51.7,33.0,30.01,ESE,109,1.0,-999.0,50,-99.99,,,0.00,weatherlink.com 1.10,2013-11-03 20:41:00,
2013-11-03 14:56:00,51.6,33.0,30.01,SE,134,4.0,-999.0,50,-99.99,,,0.00,weatherlink.com 1.10,2013-11-03 20:56:00,
2013-11-03 15:11:00,50.7,33.0,30.00,ESE,117,7.0,-999.0,51,-99.99,,,0.00,weatherlink.com 1.10,2013-11-03 21:11:00,
2013-11-03 15:26:00,49.6,32.0,30.00,ESE,121,2.0,-999.0,52,-99.99,,,0.00,weatherlink.com 1.10,2013-11-03 21:26:00,
2013-11-03 15:41:00,49.1,32.0,29.99,ESE,121,3.0,-999.0,53,-99.99,,,0.00,weatherlink.com 1.10,2013-11-03 21:41:00,
2013-11-03 15:56:00,48.6,32.0,29.99,WNW,290,3.0,-999.0,54,-99.99,,,0.00,weatherlink.com 1.10,2013-11-03 21:56:00,
2013-11-03 16:12:00,48.3,33.0,29.98,ESE,123,1.0,-999.0,55,-99.99,,,0.00,weatherlink.com 1.10,2013-11-03 22:12:00,
2013-11-03 16:27:00,47.7,32.0,29.98,SE,136,1.0,-999.0,56,-99.99,,,0.00,weatherlink.com 1.10,2013-11-03 22:27:00,
2013-11-03 16:42:00,47.3,33.0,29.98,ESE,121,1.0,-999.0,57,-99.99,,,0.00,weatherlink.com 1.10,2013-11-03 22:42:00,
2013-11-03 16:57:00,46.5,32.0,29.98,ESE,121,1.0,-999.0,58,-99.99,,,0.00,weatherlink.com 1.10,2013-11-03 22:57:00,
2013-11-03 17:12:00,46.0,32.0,29.98,SE,130,2.0,-999.0,58,-99.99,,,0.00,weatherlink.com 1.10,2013-11-03 23:12:00,
2013-11-03 17:27:00,45.7,31.0,29.98,ESE,110,4.0,-999.0,58,-99.99,,,0.00,weatherlink.com 1.10,2013-11-03 23:27:00,
2013-11-03 17:42:00,45.5,31.0,29.98,ESE,111,2.0,-999.0,58,-99.99,,,0.00,weatherlink.com 1.10,2013-11-03 23:42:00,
2013-11-03 17:57:00,45.2,31.0,29.98,ESE,112,2.0,-999.0,58,-99.99,,,0.00,weatherlink.com 1.10,2013-11-03 23:57:00,
2013-11-03 18:12:00,45.1,31.0,29.98,SE,142,0.0,-999.0,58,-99.99,,,0.00,weatherlink.com 1.10,2013-11-04 00:12:00,
2013-11-03 18:27:00,44.9,30.0,29.97,ESE,121,0.0,-999.0,57,-99.99,,,0.00,weatherlink.com 1.10,2013-11-04 00:27:00,
2013-11-03 18:42:00,44.6,30.0,29.97,SSW,202,6.0,-999.0,58,-99.99,,,0.00,weatherlink.com 1.10,2013-11-04 00:42:00,
2013-11-03 18:57:00,44.8,31.0,29.97,ESE,116,1.0,-999.0,58,-99.99,,,0.00,weatherlink.com 1.10,2013-11-04 00:57:00,
2013-11-03 19:12:00,44.8,31.0,29.97,SSW,193,2.0,-999.0,58,-99.99,,,0.00,weatherlink.com 1.10,2013-11-04 01:12:00,
2013-11-03 19:27:00,44.8,31.0,29.96,ESE,111,1.0,-999.0,59,-99.99,,,0.00,weatherlink.com 1.10,2013-11-04 01:27:00,
2013-11-03 19:42:00,44.8,31.0,29.96,East,98,1.0,-999.0,59,-99.99,,,0.00,weatherlink.com 1.10,2013-11-04 01:42:00,
2013-11-03 19:57:00,44.6,31.0,29.95,South,180,2.0,-999.0,60,-99.99,,,0.00,weatherlink.com 1.10,2013-11-04 01:57:00,
2013-11-03 20:12:00,44.3,31.0,29.95,SE,136,1.0,-999.0,61,-99.99,,,0.00,weatherlink.com 1.10,2013-11-04 02:12:00,
2013-11-03 20:27:00,44.1,32.0,29.94,SE,130,1.0,-999.0,62,-99.99,,,0.00,weatherlink.com 1.10,2013-11-04 02:27:00,
2013-11-03 20:42:00,43.8,31.0,29.95,ESE,103,4.0,-999.0,62,-99.99,,,0.00,weatherlink.com 1.10,2013-11-04 02:42:00,
2013-11-03 20:57:00,43.8,32.0,29.96,ESE,103,3.0,-999.0,63,-99.99,,,0.00,weatherlink.com 1.10,2013-11-04 02:57:00,
2013-11-03 21:12:00,43.9,32.0,29.96,SE,139,3.0,-999.0,63,-99.99,,,0.00,weatherlink.com 1.10,2013-11-04 03:12:00,
2013-11-03 21:27:00,44.1,32.0,29.96,South,171,16.0,-999.0,63,-99.99,,,0.00,weatherlink.com 1.10,2013-11-04 03:27:00,
2013-11-03 21:43:00,44.1,32.0,29.96,WNW,294,2.0,-999.0,63,-99.99,,,0.00,weatherlink.com 1.10,2013-11-04 03:43:00,
2013-11-03 21:58:00,44.1,33.0,29.96,North,360,0.0,-999.0,64,-99.99,,,0.00,weatherlink.com 1.10,2013-11-04 03:58:00,
2013-11-03 22:13:00,44.1,33.0,29.97,SSE,166,0.0,-999.0,64,-99.99,,,0.00,weatherlink.com 1.10,2013-11-04 04:13:00,
2013-11-03 22:28:00,44.1,33.0,29.96,SE,146,2.0,-999.0,65,-99.99,,,0.00,weatherlink.com 1.10,2013-11-04 04:28:00,
2013-11-03 22:43:00,44.1,33.0,29.96,SSE,167,2.0,-999.0,65,-99.99,,,0.00,weatherlink.com 1.10,2013-11-04 04:43:00,
2013-11-03 22:58:00,44.2,33.0,29.96,ESE,110,2.0,-999.0,64,-99.99,,,0.00,weatherlink.com 1.10,2013-11-04 04:58:00,
2013-11-03 23:13:00,44.5,33.0,29.96,SSE,148,0.0,-999.0,64,-99.99,,,0.00,weatherlink.com 1.10,2013-11-04 05:13:00,
2013-11-03 23:28:00,44.6,33.0,29.95,SE,130,0.0,-999.0,64,-99.99,,,0.00,weatherlink.com 1.10,2013-11-04 05:28:00,
2013-11-03 23:43:00,44.6,33.0,29.94,ESE,120,0.0,-999.0,64,-99.99,,,0.00,weatherlink.com 1.10,2013-11-04 05:43:00,
2013-11-03 23:58:00,44.8,34.0,29.94,ESE,123,1.0,-999.0,65,-99.99,,,0.00,weatherlink.com 1.10,2013-11-04 05:58:00,